Погода в Харъяге

Россия / Республика Коми     66°55′30″N   52°10′00″E
темп.,
°C
ветер,
м/с
пор.,
м/с
влажн.,
%
обл.,
%
осадки,
мм/ч
давл.,
гПа
погр.,
м
26 сентября, вс
вс2600:00+7ююв91578100 0.1 1017649
03:00+6ююв91581100 0.1 1018476
06:00+6ююв71280100 0.0 1018482
09:00+6ююв71289100 0.1 1020482
12:00+6ююв71288100 0.3 1021520
15:00+6ююв71087100 0.4 1023472
18:00+5ююв61290100 0.3 1024451
21:00+5ююв61189100 0.8 1026432
27 сентября, пн
пн2700:00+5ююв61082100 0.4 1027349
03:00+4ююв61082100 0.4 1029287
06:00+4ю6986100 0.0 1030363
09:00+4ю5891100 0.0 1031387
12:00+5ююз5790100 0.0 1031423
15:00+6ююз5788100 0.0 1031427
18:00+5ююз5891100 0.0 1031263
21:00+5юз5995100 0.0 1030204
28 сентября, вт
вт2800:00+5юз5119496 0.0 1029223
03:00+6зюз61392100 0.6 1028403
06:00+7з5994100 0.1 1027295
09:00+8с4786100 0.1 1028468
12:00+9с3572100 0.0 1029171
15:00+10с456280 0.0 1029186
18:00+6с3383100 0.0 103028
21:00+4ссв22889 0.0 103110
29 сентября, ср
ср2900:00+3зюз118946 0.0 103110
03:00+4з338793 0.0 103113
06:00+3зюз348877 0.0 103045
09:00+6юз4677100 0.0 1029236
12:00+9юз576899 0.0 1027420
15:00+10зюз698099 0.0 1025441
18:00+8юз61292100 0.0 1023295
21:00+8з7128854 0.0 1021344
30 сентября, чт
чт3000:00+7зсз71192100 0.0 1021451
03:00+7ссз61089100 0.1 1022448
06:00+6ссз7118199 0.0 1023427
09:00+6св896897 0.0 1027938
12:00+7ссв786354 0.0 10291083
15:00+6ссв576046 0.0 10311125
18:00+3св33775 0.0 103239
21:00+2св338518 0.0 103326